• In Czech Republic
  • List of Countries
  • For 7 days
  • Water Temperature
  • Satellite Maps
  • Weather Map
  • Weather Widgets
  • user-avatar
    Login

    Hourly Weather Panotla

    Today, 15 October, Monday

    Time Temperature Precipitation Wind Pressure Humidity
    00:00 +15°C° 0.4 mm 1 mps 576 mmHg 93%
    01:00 +14°C° 0.4 mm 1 mps 576 mmHg 94%
    02:00 +14°C° 0.4 mm 1 mps 576 mmHg 94%
    03:00 +14°C° 0.1 mm 1 mps 576 mmHg 94%
    04:00 +14°C° 0.1 mm 1 mps 576 mmHg 94%
    05:00 +14°C° 0.1 mm 1 mps 576 mmHg 94%
    06:00 +15°C° 0 mm 1 mps 576 mmHg 88%
    07:00 +18°C° 0 mm 1 mps 577 mmHg 82%
    08:00 +19°C° 0 mm 1 mps 578 mmHg 77%
    09:00 +20°C° 0.1 mm 1 mps 579 mmHg 71%
    10:00 +21°C° 0.1 mm 2 mps 579 mmHg 65%
    11:00 +23°C° 0.1 mm 2 mps 579 mmHg 60%
    12:00 +23°C° 0.5 mm 2 mps 579 mmHg 60%
    13:00 +23°C° 0.5 mm 2 mps 578 mmHg 60%
    14:00 +22°C° 0.5 mm 3 mps 578 mmHg 60%
    15:00 +21°C° 0.9 mm 2 mps 577 mmHg 67%
    16:00 +19°C° 0.9 mm 2 mps 577 mmHg 74%
    17:00 +18°C° 0.9 mm 2 mps 576 mmHg 82%
    18:00 +17°C° 0.5 mm 2 mps 576 mmHg 84%
    19:00 +16°C° 0.5 mm 2 mps 577 mmHg 87%
    20:00 +16°C° 0.5 mm 2 mps 577 mmHg 90%
    21:00 +15°C° 0.1 mm 2 mps 577 mmHg 90%
    22:00 +15°C° 0.1 mm 2 mps 577 mmHg 90%
    23:00 +15°C° 0.1 mm 2 mps 577 mmHg 90%

    Tomorrow, 16 October, Tuesday

    Time Temperature Precipitation Wind Pressure Humidity
    00:00 +15°C° 0 mm 2 mps 577 mmHg 91%
    01:00 +15°C° 0 mm 2 mps 577 mmHg 91%
    02:00 +14°C° 0 mm 2 mps 576 mmHg 91%
    03:00 +14°C° 0 mm 2 mps 576 mmHg 91%
    04:00 +14°C° 0 mm 2 mps 576 mmHg 91%
    05:00 +13°C° 0 mm 2 mps 576 mmHg 92%
    06:00 +15°C° 0 mm 2 mps 577 mmHg 87%
    07:00 +16°C° 0 mm 3 mps 578 mmHg 83%
    08:00 +17°C° 0 mm 3 mps 579 mmHg 79%
    09:00 +18°C° 0 mm 3 mps 579 mmHg 74%
    10:00 +19°C° 0 mm 4 mps 580 mmHg 68%
    11:00 +20°C° 0 mm 4 mps 580 mmHg 63%
    12:00 +20°C° 0.3 mm 4 mps 579 mmHg 65%
    13:00 +20°C° 0.3 mm 4 mps 578 mmHg 67%
    14:00 +19°C° 0.3 mm 4 mps 578 mmHg 70%
    15:00 +18°C° 0.3 mm 4 mps 577 mmHg 74%
    16:00 +17°C° 0.3 mm 4 mps 577 mmHg 78%
    17:00 +16°C° 0.3 mm 3 mps 576 mmHg 83%
    18:00 +14°C° 0.1 mm 3 mps 577 mmHg 84%
    19:00 +14°C° 0.1 mm 3 mps 577 mmHg 85%
    20:00 +13°C° 0.1 mm 3 mps 578 mmHg 86%
    21:00 +13°C° 0 mm 3 mps 578 mmHg 88%
    22:00 +13°C° 0 mm 3 mps 578 mmHg 89%
    23:00 +13°C° 0 mm 2 mps 578 mmHg 90%

    Day after tomorrow, 17 October, Wednesday

    Time Temperature Precipitation Wind Pressure Humidity
    00:00 +13°C° 0 mm 2 mps 577 mmHg 90%
    01:00 +12°C° 0 mm 3 mps 577 mmHg 90%
    02:00 +12°C° 0 mm 3 mps 577 mmHg 89%
    03:00 +12°C° 0 mm 3 mps 577 mmHg 89%
    04:00 +12°C° 0 mm 3 mps 576 mmHg 89%
    05:00 +11°C° 0 mm 3 mps 576 mmHg 89%
    06:00 +13°C° 0 mm 3 mps 577 mmHg 84%
    07:00 +14°C° 0 mm 3 mps 578 mmHg 80%
    08:00 +16°C° 0 mm 3 mps 579 mmHg 75%
    09:00 +17°C° 0 mm 3 mps 580 mmHg 71%
    10:00 +19°C° 0 mm 3 mps 580 mmHg 68%
    11:00 +20°C° 0 mm 3 mps 580 mmHg 64%
    12:00 +18°C° 0.5 mm 3 mps 579 mmHg 71%
    13:00 +17°C° 0.5 mm 3 mps 578 mmHg 78%
    14:00 +14°C° 0.5 mm 3 mps 576 mmHg 85%
    15:00 +14°C° 0.5 mm 3 mps 576 mmHg 86%
    16:00 +14°C° 0.5 mm 3 mps 577 mmHg 87%
    17:00 +13°C° 0.5 mm 3 mps 577 mmHg 88%
    18:00 +13°C° 0.3 mm 3 mps 577 mmHg 88%
    19:00 +13°C° 0.3 mm 3 mps 578 mmHg 89%
    20:00 +13°C° 0.3 mm 3 mps 578 mmHg 89%
    21:00 +13°C° 0.5 mm 3 mps 578 mmHg 89%
    22:00 +13°C° 0.5 mm 3 mps 578 mmHg 90%
    23:00 +12°C° 0.5 mm 3 mps 578 mmHg 90%

    18 October, Thursday

    Time Temperature Precipitation Wind Pressure Humidity
    00:00 +12°C° 0.2 mm 3 mps 577 mmHg 90%
    01:00 +13°C° 0.2 mm 2 mps 577 mmHg 90%
    02:00 +13°C° 0.2 mm 2 mps 577 mmHg 90%
    03:00 +13°C° 0 mm 2 mps 577 mmHg 91%
    04:00 +12°C° 0 mm 3 mps 577 mmHg 91%
    05:00 +12°C° 0 mm 3 mps 577 mmHg 91%
    06:00 +13°C° 0 mm 3 mps 578 mmHg 89%
    07:00 +14°C° 0 mm 3 mps 578 mmHg 87%
    08:00 +14°C° 0 mm 3 mps 579 mmHg 85%
    09:00 +15°C° 0.1 mm 4 mps 579 mmHg 82%
    10:00 +15°C° 0.1 mm 4 mps 579 mmHg 80%
    11:00 +17°C° 0.1 mm 4 mps 579 mmHg 77%
    12:00 +17°C° 0.1 mm 4 mps 579 mmHg 75%
    13:00 +18°C° 0.1 mm 4 mps 579 mmHg 74%
    14:00 +18°C° 0.1 mm 4 mps 578 mmHg 72%
    15:00 +17°C° 0.1 mm 4 mps 578 mmHg 76%
    16:00 +16°C° 0.1 mm 3 mps 578 mmHg 79%
    17:00 +14°C° 0.1 mm 3 mps 578 mmHg 83%
    18:00 +14°C° 0 mm 3 mps 578 mmHg 85%
    19:00 +13°C° 0 mm 3 mps 578 mmHg 86%
    20:00 +13°C° 0 mm 3 mps 578 mmHg 88%
    21:00 +12°C° 0 mm 3 mps 578 mmHg 89%
    22:00 +12°C° 0 mm 3 mps 578 mmHg 90%
    23:00 +12°C° 0 mm 3 mps 578 mmHg 91%

    19 October, Friday

    Time Temperature Precipitation Wind Pressure Humidity
    00:00 +12°C° 0 mm 3 mps 577 mmHg 91%
    01:00 +12°C° 0 mm 3 mps 577 mmHg 91%
    02:00 +11°C° 0 mm 3 mps 576 mmHg 91%
    03:00 +11°C° 0 mm 3 mps 576 mmHg 91%
    04:00 +11°C° 0 mm 3 mps 577 mmHg 91%
    05:00 +11°C° 0 mm 3 mps 577 mmHg 91%
    06:00 +12°C° 0 mm 3 mps 578 mmHg 88%
    07:00 +13°C° 0 mm 3 mps 578 mmHg 84%
    08:00 +16°C° 0 mm 3 mps 579 mmHg 80%
    09:00 +17°C° 0.1 mm 3 mps 579 mmHg 76%
    10:00 +18°C° 0.1 mm 3 mps 579 mmHg 73%
    11:00 +19°C° 0.1 mm 3 mps 580 mmHg 69%
    12:00 +19°C° 0.4 mm 3 mps 579 mmHg 70%
    13:00 +19°C° 0.4 mm 3 mps 578 mmHg 70%
    14:00 +19°C° 0.4 mm 2 mps 578 mmHg 70%
    15:00 +18°C° 0.5 mm 2 mps 577 mmHg 75%
    16:00 +17°C° 0.5 mm 2 mps 577 mmHg 79%
    17:00 +16°C° 0.5 mm 2 mps 577 mmHg 84%
    18:00 +15°C° 0.2 mm 2 mps 577 mmHg 86%
    19:00 +15°C° 0.2 mm 2 mps 577 mmHg 89%
    20:00 +14°C° 0.2 mm 2 mps 578 mmHg 91%
    21:00 +14°C° 0.1 mm 2 mps 577 mmHg 91%
    22:00 +14°C° 0.1 mm 2 mps 577 mmHg 92%
    23:00 +13°C° 0.1 mm 2 mps 577 mmHg 92%

    20 October, Saturday

    Time Temperature Precipitation Wind Pressure Humidity
    00:00 +13°C° 0 mm 2 mps 577 mmHg 92%
    01:00 +13°C° 0 mm 2 mps 576 mmHg 92%
    02:00 +13°C° 0 mm 2 mps 576 mmHg 91%
    03:00 +13°C° 0 mm 2 mps 576 mmHg 91%
    04:00 +12°C° 0 mm 2 mps 576 mmHg 92%
    05:00 +12°C° 0 mm 2 mps 576 mmHg 92%
    06:00 +13°C° 0 mm 2 mps 577 mmHg 87%
    07:00 +15°C° 0 mm 2 mps 578 mmHg 82%
    08:00 +16°C° 0 mm 3 mps 579 mmHg 77%
    09:00 +17°C° 0.1 mm 3 mps 579 mmHg 74%
    10:00 +18°C° 0.1 mm 3 mps 579 mmHg 71%
    11:00 +19°C° 0.1 mm 3 mps 579 mmHg 68%
    12:00 +18°C° 0.3 mm 3 mps 579 mmHg 71%
    13:00 +18°C° 0.3 mm 3 mps 578 mmHg 73%
    14:00 +18°C° 0.3 mm 3 mps 577 mmHg 75%
    15:00 +17°C° 0.3 mm 3 mps 577 mmHg 78%
    16:00 +16°C° 0.3 mm 3 mps 577 mmHg 81%
    17:00 +16°C° 0.3 mm 3 mps 577 mmHg 84%
    18:00 +14°C° 0.1 mm 3 mps 577 mmHg 86%
    19:00 +13°C° 0.1 mm 3 mps 578 mmHg 89%
    20:00 +14°C° 0.1 mm 2 mps 578 mmHg 91%
    21:00 +14°C° 0.1 mm 2 mps 578 mmHg 91%
    22:00 +14°C° 0.1 mm 2 mps 577 mmHg 92%
    23:00 +13°C° 0.1 mm 2 mps 577 mmHg 92%
    Show more